Regional Weather Roundup
Issued by NWS Newport/Morehead, NC

Current Version | Previous Version | Graphics & Text | Print | Product List | Glossary Off
Versions: 1 2 3 4 5 6 7 8 9 10 11 12 13 14 15 16 17 18 19 20 21 22 23 24 25 26 27 28 29 30 31 32 33 34 35 36 37 38 39 40 41 42 43 44 45 46 47 48 49 50

000
ASUS42 KMHX 251010
RWRMHX
WEATHER ROUNDUP FOR EASTERN NORTH CAROLINA
NATIONAL WEATHER SERVICE NEWPORT/MOREHEAD CITY NC
600 AM EDT FRI JUL 25 2014

NOTE: "FAIR" INDICATES FEW OR NO CLOUDS BELOW 12,000 FEET
WITH NO SIGNIFICANT WEATHER AND/OR OBSTRUCTIONS TO VISIBILITY

NCZ015>017-031-032-045>047-102-103-251100-
NORTH COAST

CITY           SKY/WX    TMP DP  RH WIND       PRES   REMARKS
EDENTON        MOCLDY    69  68  95 N7        29.99R
ELIZABETH CITY CLEAR     69  67  93 NW7       29.98R
KITTY HAWK     SUNNY     71  69  93 NW5       29.95R
MANTEO         NOT AVBL

$$

NCZ045>047-081-094-103-104-251100-
CENTRAL COAST

CITY           SKY/WX    TMP DP  RH WIND       PRES   REMARKS
FRISCO         CLOUDY    74  72  93 NW8       29.96R
SWANQUARTER      N/A     70 N/A N/A NW5       29.94R

$$

NCZ095-097-098-100-101-251100-
SOUTHERN COAST

CITY           SKY/WX    TMP DP  RH WIND       PRES   REMARKS
BEAUFORT       CLOUDY    71  69  93 NW10      29.98R
CEDAR ISLAND     N/A     73 N/A N/A NW12G18   30.00S
JACKSONVILLE   FOG       69  69 100 N6        29.98R VSB 1
NEWPORT        NOT AVBL
PINEY ISLAND   PTSUNNY   71  71 100 NW12      29.97R
WILMINGTON     MOCLDY    73  71  93 N5        29.96R


$$

NCZ011>013-027>030-043-044-078>080-089-090>093-098-251100-
COASTAL PLAIN

CITY           SKY/WX    TMP DP  RH WIND       PRES   REMARKS
AHOSKIE        PTCLDY    67  66  96 CALM      30.00R
CLINTON        CLOUDY    68  68 100 N3        30.00R
ELIZABETHTOWN  CLOUDY    70  70 100 CALM      29.98R
GOLDSBORO      MOCLDY    67  66  99 CALM      29.99R
GREENVILLE     CLOUDY    68  68 100 CALM      30.01S
HAVELOCK       MOCLDY    69  67  93 N7        29.99R
KENANSVILLE    CLOUDY    67  65  94 N5        30.00S
KINSTON        MOCLDY    67  67  99 N6        30.01R
NEW BERN       CLOUDY    69  66  90 NW7       30.00R
RICHLANDS      CLOUDY    68  64  88 NW3       29.99S
ROANOKE RAPIDS NOT AVBL
ROCKY MOUNT    MOCLDY    66  65  96 N3        30.01R
WASHINGTON     CLOUDY    68  67  96 CALM      29.99R
WHITEVILLE     CLOUDY    73  71  95 CALM      29.97R FOG

$$

AMZ130-135-150-152-154-156-158-170-250-252-270-ANZ085-086-088-633-658-670-251100-
MARINE OBSERVATIONS

STATION/POSITION TIME  TEMP    WIND        PRES    WAVE   SWELL
                       AIR SEA DIR/SP/G            HT/PER HT/PER
                 (UTC) (F)     (DEG/KT/KT) (MB)    (FT/S) (FT/S)
CHESAPEAKE LIGHT NOT AVBL
BUOY 44014       1000   76 78  350/ 12/ 14 1013.5    3/ 6   2/ 6
DUCK             1000   72 73  330/ 17/ 22 1013.7
2E DUCK          1000                        N/A     3/ 4
OREGON INLET     1000   71 77  340/  5/  9 1014.2
BUOY 44095       1000      78                N/A     3/ 7
20E OREGON INLET NOT AVBL
HATTERAS CG      1000   75 80  320/ 16/ 19 1014.7
DIAMOND BUOY     1000          VRB 12/ 14  1013.6    3/ 7   2/ 7
CAPE LOOKOUT     0900   75     300/  9/ 10 1014.0
BEAUFORT LAB     1000   71 80  350/  8/ 10 1014.8
30 SE NEW RIVER  0900   78 81  220/ 12/ 16 1014.3
5 SE WRIGHTSVILL 0900   74 81  270/ 12/ 14   N/A
BUOY 41002       0922   82 82  240/ 19/ 21 1016.7    6/ 5   2/ 9
BUOY 41004       1000   83 83  270/ 14/ 17 1014.2    4/ 5   2/ 7

$$


USA.gov is the U.S. government's official web portal to all federal, state and local government web resources and services.